Flag for Canada Weather past 2 weeks in Kingston, Ontario, Canada

Now
63 °F

Partly sunny.


Feels Like: 63 °F
Forecast: 58 / 76 °F
Wind: 6 mph from Northeast

Location: Kingston

Current Time: Aug 20, 2014 at 8:43:50 AM

Latest Report: Aug 20, 2014 at 8:00 AM


Visibility: 15 mi

Pressure: 29.90 "Hg

Humidity: 88%

Dew point: 59 °F

Location of KingstonLocation

Historic Weather in Kingston — Graph

°F

Kingston temperature yesterday

Maximum temperature yesterday: 73 °F (at 2:00 PM)
Minimum temperature yesterday: 48 °F (at 6:00 AM)
Average temperature yesterday: 66 °F

Past Weeks' High & Low Weather Summary

 TemperatureHumidityPressure
High81 °F (Aug 11, 4:00 PM)100% (Aug 10, 7:00 AM)30.17 "Hg (Aug 10, 7:00 AM)
Low48 °F (Aug 19, 6:00 AM)41% (Aug 7, 2:00 PM)29.69 "Hg (Aug 13, 6:00 AM)
Average67 °F74%29.95 "Hg
* Reported Aug 5 7:00 AM — Aug 20 7:00 AM, Kingston, Weather by CustomWeather, © 2014

Note: Actual official high and low records may vary slightly from our data, if they occured in-between our weather recording intervals... More about our weather records

Advertising

Kingston weather history for previous 24 hours

 ConditionsComfort  
Time TempWeatherWind HumidityBarometerVisibility
7:00 AM
Aug 20
61 °FPassing clouds.6 mph88%29.90 "Hg15 mi
6:00 AM59 °FPassing clouds.6 mph94%29.88 "Hg15 mi
11:00 PM
Aug 19
64 °FPassing clouds.10 mph73%29.88 "Hg15 mi
10:00 PM66 °FPassing clouds.8 mph64%29.89 "Hg15 mi
9:00 PM66 °FScattered clouds.7 mph60%29.88 "Hg15 mi
8:00 PM70 °FBroken clouds.5 mph50%29.88 "Hg15 mi
7:00 PM72 °FBroken clouds.6 mph50%29.88 "Hg15 mi
6:00 PM73 °FScattered clouds.5 mph50%29.87 "Hg15 mi
5:00 PM73 °FPassing clouds.8 mph44%29.88 "Hg15 mi
4:00 PM73 °FScattered clouds.6 mph41%29.89 "Hg15 mi
3:00 PM73 °FPassing clouds.7 mph41%29.89 "Hg15 mi
2:00 PM73 °FScattered clouds.9 mph47%29.91 "Hg15 mi
1:00 PM70 °FBroken clouds.10 mph53%29.92 "Hg15 mi
12:00 PM70 °FPartly sunny.12 mph53%29.92 "Hg15 mi
11:00 AM68 °FScattered clouds.8 mph60%29.93 "Hg15 mi
10:00 AM64 °FScattered clouds.7 mph78%29.93 "Hg15 mi
9:00 AM63 °FScattered clouds.7 mph88%29.93 "Hg15 mi
8:00 AM59 °FScattered clouds.5 mph94%29.93 "Hg15 mi
Weather by CustomWeather, © 2014

See weather overviewHow to use our weather pages